Location: Goettingen
(51.5300°N, 9.9433°E)
Time: 15:56:21
(UTC+02:00)

ISS - Pass Details

Date: 22 May 2018
Orbit: 402 x 407 km, 51.6° (Epoch: 23 May)

Event Time Altitude Azimuth Distance (km) Brightness Sun altitude
Rises 03:04:00 0° 283° (WNW) 2,321 -0.1 -14.4°
Reaches altitude 10° 03:06:07 10° 278° (W) 1,459 -1.2 -14.2°
Maximum altitude 03:09:17 48° 203° (SSW) 533 -3.7 -14.0°
Drops below altitude 10° 03:12:27 10° 127° (SE) 1,454 -1.1 -13.8°
Sets 03:14:33 0° 122° (ESE) 2,311 0.0 -13.6°
